Location: Coleto Creek Park and Reservoir
(28.7196°N, 97.1740°W)
Time: 17:27:21
(UTC-05:00)

Hubble Space Telescope - Visible Passes

Search period start: 25 September 2017 00:00
Search period end: 05 October 2017 00:00
Orbit: 538 x 541 km, 28.5° (Epoch: 24 September)

Date Brightness Start Highest point End Pass type
(mag) Time Alt. Az. Time Alt. Az. Time Alt. Az.
27 Sep 3.4 06:12:49 10° S 06:14:25 12° SSE 06:16:01 10° SE visible
28 Sep 3.2 06:01:40 10° SSW 06:04:11 16° SSE 06:06:42 10° ESE visible
29 Sep 2.8 05:52:17 16° S 05:53:57 20° SSE 05:57:01 10° ESE visible
30 Sep 2.4 05:42:59 24° S 05:43:44 25° SSE 05:47:10 10° ESE visible
01 Oct 2.1 05:33:38 31° SSE 05:33:38 31° SSE 05:37:12 10° E visible
02 Oct 2.1 05:24:13 33° SE 05:24:13 33° SE 05:27:11 10° E visible
03 Oct 2.5 05:14:45 30° ESE 05:14:45 30° ESE 05:17:08 10° E visible
03 Oct 0.8 06:50:07 10° W 06:54:16 85° S 06:58:26 10° E visible
04 Oct 3.0 05:05:16 24° E 05:05:16 24° E 05:07:02 10° E visible
04 Oct 0.8 06:40:38 14° W 06:44:08 88° S 06:48:18 10° E visible
